Time,TemperatureF,DewpointF,PressureIn,WindDirection,WindDirectionDegrees,WindSpeedMPH,WindSpeedGustMPH,Humidity,HourlyPrecipIn,Conditions,Clouds,dailyrainin,SoftwareType,DateUTC
2013-07-02 00:01:00,58.6,39.0,25.16,East,101,0.0,0.0,48,0.00,,---,0.00,VWS V14.01,2013-07-02 05:01:00,
2013-07-02 00:04:00,58.6,39.0,25.16,East,101,0.0,0.0,48,0.00,,---,0.00,VWS V14.01,2013-07-02 05:04:00,
2013-07-02 00:05:00,58.6,39.0,25.16,East,101,0.0,0.0,48,0.00,,---,0.00,VWS V14.01,2013-07-02 05:05:00,
2013-07-02 00:06:00,58.6,39.0,25.16,East,101,0.0,0.0,48,0.00,,---,0.00,VWS V14.01,2013-07-02 05:06:00,
2013-07-02 00:09:00,58.5,38.9,25.16,East,100,0.0,0.0,48,0.00,,---,0.00,VWS V14.01,2013-07-02 05:09:00,
2013-07-02 00:10:00,58.5,38.9,25.16,East,100,0.0,0.0,48,0.00,,---,0.00,VWS V14.01,2013-07-02 05:10:00,
2013-07-02 00:11:00,58.5,38.9,25.16,East,96,0.0,0.0,48,0.00,,---,0.00,VWS V14.01,2013-07-02 05:11:00,
2013-07-02 00:15:00,58.5,38.9,25.16,East,96,0.0,0.0,48,0.00,,---,0.00,VWS V14.01,2013-07-02 05:15:00,
2013-07-02 00:16:00,58.5,38.9,25.16,East,96,0.0,0.0,48,0.00,,---,0.00,VWS V14.01,2013-07-02 05:16:00,
2013-07-02 00:17:00,58.5,38.9,25.16,East,96,0.0,0.0,48,0.00,,---,0.00,VWS V14.01,2013-07-02 05:17:00,
2013-07-02 00:20:00,58.5,38.9,25.16,East,96,0.0,0.0,48,0.00,,---,0.00,VWS V14.01,2013-07-02 05:20:00,
2013-07-02 00:21:00,58.5,38.9,25.16,East,96,0.0,0.0,48,0.00,,---,0.00,VWS V14.01,2013-07-02 05:21:00,
2013-07-02 00:22:00,58.1,38.5,25.16,East,96,0.0,0.0,48,0.00,,---,0.00,VWS V14.01,2013-07-02 05:22:00,
2013-07-02 00:25:00,58.1,38.5,25.16,East,96,0.0,0.0,48,0.00,,---,0.00,VWS V14.01,2013-07-02 05:25:00,
2013-07-02 00:26:00,58.1,38.5,25.16,East,96,0.0,0.0,48,0.00,,---,0.00,VWS V14.01,2013-07-02 05:26:00,
2013-07-02 00:27:00,58.1,38.5,25.16,East,96,0.0,0.0,48,0.00,,---,0.00,VWS V14.01,2013-07-02 05:27:00,
2013-07-02 00:30:00,58.1,38.5,25.16,East,96,0.0,0.0,48,0.00,,---,0.00,VWS V14.01,2013-07-02 05:30:00,
2013-07-02 00:31:00,58.1,38.5,25.16,East,96,0.0,0.0,48,0.00,,---,0.00,VWS V14.01,2013-07-02 05:31:00,
2013-07-02 00:32:00,58.1,38.5,25.16,NE,47,0.0,0.0,48,0.00,,---,0.00,VWS V14.01,2013-07-02 05:32:00,
2013-07-02 00:36:00,58.1,38.5,25.16,NE,47,0.0,0.0,48,0.00,,---,0.00,VWS V14.01,2013-07-02 05:36:00,
2013-07-02 00:37:00,57.2,38.2,25.16,NE,47,0.0,0.0,49,0.00,,---,0.00,VWS V14.01,2013-07-02 05:37:00,
2013-07-02 00:41:00,57.2,38.2,25.16,NE,47,0.0,0.0,49,0.00,,---,0.00,VWS V14.01,2013-07-02 05:41:00,
2013-07-02 00:42:00,57.2,38.2,25.16,NE,47,0.0,0.0,49,0.00,,---,0.00,VWS V14.01,2013-07-02 05:42:00,
2013-07-02 00:46:00,57.0,38.6,25.16,NE,47,0.0,0.0,50,0.00,,---,0.00,VWS V14.01,2013-07-02 05:46:00,
2013-07-02 00:47:00,57.0,38.6,25.16,NE,47,0.0,0.0,50,0.00,,---,0.00,VWS V14.01,2013-07-02 05:47:00,
2013-07-02 00:51:00,56.8,38.4,25.19,WNW,297,0.0,0.0,50,0.00,,---,0.00,VWS V14.01,2013-07-02 05:51:00,
2013-07-02 00:52:00,56.8,38.4,25.19,WNW,296,0.0,0.0,50,0.00,,---,0.00,VWS V14.01,2013-07-02 05:52:00,
2013-07-02 00:53:00,56.8,38.4,25.19,WNW,296,0.0,0.0,50,0.00,,---,0.00,VWS V14.01,2013-07-02 05:53:00,
2013-07-02 00:56:00,56.5,38.6,25.19,WNW,294,0.0,0.0,51,0.00,,---,0.00,VWS V14.01,2013-07-02 05:56:00,
2013-07-02 00:58:00,56.5,38.6,25.19,WNW,286,0.0,0.0,51,0.00,,---,0.00,VWS V14.01,2013-07-02 05:58:00,
2013-07-02 01:01:00,56.5,38.6,25.19,WNW,288,3.6,3.6,51,0.00,,---,0.00,VWS V14.01,2013-07-02 06:01:00,
2013-07-02 01:02:00,56.5,38.6,25.19,WNW,288,3.6,3.6,51,0.00,,---,0.00,VWS V14.01,2013-07-02 06:02:00,
2013-07-02 01:03:00,56.5,38.6,25.19,WNW,288,2.7,2.7,51,0.00,,---,0.00,VWS V14.01,2013-07-02 06:03:00,
2013-07-02 01:07:00,56.7,39.7,25.19,WNW,288,2.7,2.7,53,0.00,,---,0.00,VWS V14.01,2013-07-02 06:07:00,
2013-07-02 01:08:00,56.7,39.7,25.19,NW,315,3.1,3.1,53,0.00,,---,0.00,VWS V14.01,2013-07-02 06:08:00,
2013-07-02 01:12:00,56.5,39.6,25.19,NNW,331,0.0,0.0,53,0.00,,---,0.00,VWS V14.01,2013-07-02 06:12:00,
2013-07-02 01:13:00,56.3,39.4,25.19,NNW,331,0.0,0.0,53,0.00,,---,0.00,VWS V14.01,2013-07-02 06:13:00,
2013-07-02 01:14:00,56.3,39.4,25.19,NNW,331,0.0,0.0,53,0.00,,---,0.00,VWS V14.01,2013-07-02 06:14:00,
2013-07-02 01:17:00,56.3,38.9,25.19,NNW,335,0.0,0.0,52,0.00,,---,0.00,VWS V14.01,2013-07-02 06:17:00,
2013-07-02 01:18:00,56.3,38.9,25.19,NNW,335,0.0,0.0,52,0.00,,---,0.00,VWS V14.01,2013-07-02 06:18:00,
2013-07-02 01:19:00,56.3,38.9,25.19,NNW,335,0.0,0.0,52,0.00,,---,0.00,VWS V14.01,2013-07-02 06:19:00,
2013-07-02 01:22:00,56.3,38.9,25.19,NNW,335,0.0,0.0,52,0.00,,---,0.00,VWS V14.01,2013-07-02 06:22:00,
2013-07-02 01:23:00,56.3,38.9,25.19,NNW,335,0.0,0.0,52,0.00,,---,0.00,VWS V14.01,2013-07-02 06:23:00,
2013-07-02 01:24:00,56.3,38.9,25.16,NNW,335,0.0,0.0,52,0.00,,---,0.00,VWS V14.01,2013-07-02 06:24:00,
2013-07-02 01:27:00,56.3,38.9,25.16,NNW,334,0.0,0.0,52,0.00,,---,0.00,VWS V14.01,2013-07-02 06:27:00,
2013-07-02 01:28:00,56.3,38.9,25.16,NNW,334,0.0,0.0,52,0.00,,---,0.00,VWS V14.01,2013-07-02 06:28:00,
2013-07-02 01:29:00,56.3,38.9,25.16,NNW,334,0.0,0.0,52,0.00,,---,0.00,VWS V14.01,2013-07-02 06:29:00,
2013-07-02 01:33:00,55.6,38.7,25.16,NNW,334,0.0,0.0,53,0.00,,---,0.00,VWS V14.01,2013-07-02 06:33:00,
2013-07-02 01:34:00,55.4,39.0,25.16,NNW,334,0.0,0.0,54,0.00,,---,0.00,VWS V14.01,2013-07-02 06:34:00,
2013-07-02 01:38:00,55.4,39.0,25.16,NNW,334,4.0,4.0,54,0.00,,---,0.00,VWS V14.01,2013-07-02 06:38:00,
2013-07-02 01:39:00,55.4,39.5,25.16,NNW,335,3.6,3.6,55,0.00,,---,0.00,VWS V14.01,2013-07-02 06:39:00,
2013-07-02 01:41:00,55.4,39.5,25.16,NNW,335,3.6,3.6,55,0.00,,---,0.00,VWS V14.01,2013-07-02 06:41:00,
2013-07-02 01:43:00,55.2,39.3,25.16,NNW,335,0.0,0.0,55,0.00,,---,0.00,VWS V14.01,2013-07-02 06:43:00,
2013-07-02 01:44:00,55.2,39.3,25.16,NNW,335,0.0,0.0,55,0.00,,---,0.00,VWS V14.01,2013-07-02 06:44:00,
2013-07-02 01:45:00,55.2,39.3,25.16,NNW,335,0.0,0.0,55,0.00,,---,0.00,VWS V14.01,2013-07-02 06:45:00,
2013-07-02 01:46:00,55.2,39.3,25.16,NNW,335,0.0,0.0,55,0.00,,---,0.00,VWS V14.01,2013-07-02 06:46:00,
2013-07-02 01:49:00,55.2,39.3,25.16,NNW,335,0.0,0.0,55,0.00,,---,0.00,VWS V14.01,2013-07-02 06:49:00,
2013-07-02 01:50:00,55.2,39.3,25.16,NNW,335,0.0,0.0,55,0.00,,---,0.00,VWS V14.01,2013-07-02 06:50:00,
2013-07-02 01:51:00,55.2,39.3,25.19,NNW,335,0.0,0.0,55,0.00,,---,0.00,VWS V14.01,2013-07-02 06:51:00,
2013-07-02 01:54:00,55.2,39.3,25.19,NNW,335,0.0,0.0,55,0.00,,---,0.00,VWS V14.01,2013-07-02 06:54:00,
2013-07-02 01:55:00,55.2,39.3,25.19,NNW,335,0.0,0.0,55,0.00,,---,0.00,VWS V14.01,2013-07-02 06:55:00,
2013-07-02 01:56:00,54.9,39.9,25.19,NNW,335,0.0,0.0,57,0.00,,---,0.00,VWS V14.01,2013-07-02 06:56:00,
2013-07-02 01:59:00,54.9,39.9,25.19,NNW,335,0.0,0.0,57,0.00,,---,0.00,VWS V14.01,2013-07-02 06:59:00,
2013-07-02 02:00:00,54.9,39.9,25.19,NNW,335,0.0,0.0,57,0.00,,---,0.00,VWS V14.01,2013-07-02 07:00:00,
2013-07-02 02:01:00,54.9,39.9,25.19,NNW,335,0.0,0.0,57,0.00,,---,0.00,VWS V14.01,2013-07-02 07:01:00,
2013-07-02 02:04:00,54.5,39.6,25.19,NNW,335,0.0,0.0,57,0.00,,---,0.00,VWS V14.01,2013-07-02 07:04:00,
2013-07-02 02:05:00,54.5,39.6,25.19,NNW,335,0.0,0.0,57,0.00,,---,0.00,VWS V14.01,2013-07-02 07:05:00,
2013-07-02 02:06:00,54.5,39.6,25.19,NNW,335,0.0,0.0,57,0.00,,---,0.00,VWS V14.01,2013-07-02 07:06:00,
2013-07-02 02:09:00,54.3,39.4,25.19,NNW,335,0.0,0.0,57,0.00,,---,0.00,VWS V14.01,2013-07-02 07:09:00,
2013-07-02 02:10:00,54.3,39.4,25.19,NNW,335,0.0,0.0,57,0.00,,---,0.00,VWS V14.01,2013-07-02 07:10:00,
2013-07-02 02:11:00,54.3,39.4,25.19,NNW,334,0.0,0.0,57,0.00,,---,0.00,VWS V14.01,2013-07-02 07:11:00,
2013-07-02 02:15:00,54.1,39.7,25.19,WNW,291,4.0,4.0,58,0.00,,---,0.00,VWS V14.01,2013-07-02 07:15:00,
2013-07-02 02:16:00,54.1,39.7,25.19,WNW,296,2.7,4.0,58,0.00,,---,0.00,VWS V14.01,2013-07-02 07:16:00,
2013-07-02 02:20:00,54.0,39.5,25.16,WNW,298,2.2,2.2,58,0.00,,---,0.00,VWS V14.01,2013-07-02 07:20:00,
2013-07-02 02:21:00,54.0,39.5,25.16,North,353,0.0,0.0,58,0.00,,---,0.00,VWS V14.01,2013-07-02 07:21:00,
2013-07-02 02:25:00,53.8,39.8,25.16,North,353,0.0,0.0,59,0.00,,---,0.00,VWS V14.01,2013-07-02 07:25:00,
2013-07-02 02:27:00,53.8,39.8,25.16,North,353,0.0,0.0,59,0.00,,---,0.00,VWS V14.01,2013-07-02 07:27:00,
2013-07-02 02:30:00,53.8,39.8,25.16,North,0,0.0,0.0,59,0.00,,---,0.00,VWS V14.01,2013-07-02 07:30:00,
2013-07-02 02:31:00,53.8,39.8,25.16,North,0,0.0,0.0,59,0.00,,---,0.00,VWS V14.01,2013-07-02 07:31:00,
2013-07-02 02:32:00,53.6,39.6,25.16,NNE,22,0.0,0.0,59,0.00,,---,0.00,VWS V14.01,2013-07-02 07:32:00,
2013-07-02 02:35:00,53.6,39.6,25.16,NNE,22,0.0,0.0,59,0.00,,---,0.00,VWS V14.01,2013-07-02 07:35:00,
2013-07-02 02:36:00,53.6,39.6,25.16,NNE,22,0.0,0.0,59,0.00,,---,0.00,VWS V14.01,2013-07-02 07:36:00,
2013-07-02 02:37:00,53.6,39.6,25.16,NNE,20,0.0,0.0,59,0.00,,---,0.00,VWS V14.01,2013-07-02 07:37:00,
2013-07-02 02:40:00,53.6,40.1,25.16,NNE,20,0.0,0.0,60,0.00,,---,0.00,VWS V14.01,2013-07-02 07:40:00,
2013-07-02 02:41:00,53.6,40.1,25.16,NNE,19,0.0,0.0,60,0.00,,---,0.00,VWS V14.01,2013-07-02 07:41:00,
2013-07-02 02:42:00,53.6,40.1,25.16,NNE,19,0.0,0.0,60,0.00,,---,0.00,VWS V14.01,2013-07-02 07:42:00,
2013-07-02 02:45:00,53.4,39.9,25.16,NE,40,0.0,0.0,60,0.00,,---,0.00,VWS V14.01,2013-07-02 07:45:00,
2013-07-02 02:46:00,53.4,39.9,25.16,NE,40,0.0,0.0,60,0.00,,---,0.00,VWS V14.01,2013-07-02 07:46:00,
2013-07-02 02:47:00,53.4,39.9,25.16,East,97,0.0,0.0,60,0.00,,---,0.00,VWS V14.01,2013-07-02 07:47:00,
2013-07-02 02:51:00,53.2,40.6,25.16,East,97,0.0,0.0,62,0.00,,---,0.00,VWS V14.01,2013-07-02 07:51:00,
2013-07-02 02:52:00,52.9,40.2,25.16,East,97,0.0,0.0,62,0.00,,---,0.00,VWS V14.01,2013-07-02 07:52:00,
2013-07-02 02:56:00,52.9,40.2,25.16,East,97,0.0,0.0,62,0.00,,---,0.00,VWS V14.01,2013-07-02 07:56:00,
2013-07-02 02:57:00,52.5,39.9,25.16,East,97,0.0,0.0,62,0.00,,---,0.00,VWS V14.01,2013-07-02 07:57:00,
2013-07-02 02:58:00,52.5,39.9,25.16,East,97,0.0,0.0,62,0.00,,---,0.00,VWS V14.01,2013-07-02 07:58:00,
2013-07-02 03:02:00,52.3,39.7,25.16,East,97,0.0,0.0,62,0.00,,---,0.00,VWS V14.01,2013-07-02 08:02:00,
2013-07-02 03:04:00,52.3,39.7,25.16,East,97,0.0,0.0,62,0.00,,---,0.00,VWS V14.01,2013-07-02 08:04:00,
2013-07-02 03:07:00,52.3,40.1,25.16,East,97,0.0,0.0,63,0.00,,---,0.00,VWS V14.01,2013-07-02 08:07:00,
2013-07-02 03:09:00,52.3,40.1,25.16,East,96,0.0,0.0,63,0.00,,---,0.00,VWS V14.01,2013-07-02 08:09:00,
2013-07-02 03:12:00,52.3,40.1,25.16,East,96,0.0,0.0,63,0.00,,---,0.00,VWS V14.01,2013-07-02 08:12:00,
2013-07-02 03:13:00,52.3,40.1,25.16,East,96,0.0,0.0,63,0.00,,---,0.00,VWS V14.01,2013-07-02 08:13:00,
2013-07-02 03:14:00,52.5,40.7,25.16,East,96,0.0,0.0,64,0.00,,---,0.00,VWS V14.01,2013-07-02 08:14:00,
2013-07-02 03:17:00,52.5,40.7,25.16,East,96,0.0,0.0,64,0.00,,---,0.00,VWS V14.01,2013-07-02 08:17:00,
2013-07-02 03:18:00,52.5,40.7,25.16,East,96,0.0,0.0,64,0.00,,---,0.00,VWS V14.01,2013-07-02 08:18:00,
2013-07-02 03:19:00,52.5,40.7,25.16,East,96,0.0,0.0,64,0.00,,---,0.00,VWS V14.01,2013-07-02 08:19:00,
2013-07-02 03:23:00,52.5,40.7,25.16,NNW,341,0.0,0.0,64,0.00,,---,0.00,VWS V14.01,2013-07-02 08:23:00,
2013-07-02 03:24:00,52.5,40.7,25.16,NNW,341,0.0,0.0,64,0.00,,---,0.00,VWS V14.01,2013-07-02 08:24:00,
2013-07-02 03:28:00,52.5,40.7,25.16,NNW,330,2.7,2.7,64,0.00,,---,0.00,VWS V14.01,2013-07-02 08:28:00,
2013-07-02 03:30:00,52.5,40.7,25.16,NNW,338,3.1,3.1,64,0.00,,---,0.00,VWS V14.01,2013-07-02 08:30:00,
2013-07-02 03:33:00,52.3,40.5,25.16,NNW,338,3.1,3.1,64,0.00,,---,0.00,VWS V14.01,2013-07-02 08:33:00,
2013-07-02 03:34:00,52.3,40.5,25.16,NNW,338,0.0,3.1,64,0.00,,---,0.00,VWS V14.01,2013-07-02 08:34:00,
2013-07-02 03:35:00,52.3,40.5,25.16,NNW,338,0.0,3.1,64,0.00,,---,0.00,VWS V14.01,2013-07-02 08:35:00,
2013-07-02 03:38:00,52.3,40.5,25.16,NNW,338,0.0,0.0,64,0.00,,---,0.00,VWS V14.01,2013-07-02 08:38:00,
2013-07-02 03:39:00,52.3,40.5,25.16,NNW,338,0.0,0.0,64,0.00,,---,0.00,VWS V14.01,2013-07-02 08:39:00,
2013-07-02 03:40:00,52.3,40.9,25.16,NNW,338,0.0,0.0,65,0.00,,---,0.00,VWS V14.01,2013-07-02 08:40:00,
2013-07-02 03:43:00,52.3,40.9,25.16,NNW,338,0.0,0.0,65,0.00,,---,0.00,VWS V14.01,2013-07-02 08:43:00,
2013-07-02 03:44:00,52.3,40.9,25.16,NNW,338,0.0,0.0,65,0.00,,---,0.00,VWS V14.01,2013-07-02 08:44:00,
2013-07-02 03:45:00,52.3,40.9,25.16,NNW,338,0.0,0.0,65,0.00,,---,0.00,VWS V14.01,2013-07-02 08:45:00,
2013-07-02 03:48:00,52.0,40.6,25.16,NNW,339,2.7,2.7,65,0.00,,---,0.00,VWS V14.01,2013-07-02 08:48:00,
2013-07-02 03:49:00,52.0,40.6,25.16,NNW,338,0.0,2.7,65,0.00,,---,0.00,VWS V14.01,2013-07-02 08:49:00,
2013-07-02 03:50:00,52.0,40.6,25.16,NNW,338,0.0,0.0,65,0.00,,---,0.00,VWS V14.01,2013-07-02 08:50:00,
2013-07-02 03:54:00,51.8,40.4,25.16,NNW,338,0.0,0.0,65,0.00,,---,0.00,VWS V14.01,2013-07-02 08:54:00,
2013-07-02 03:55:00,51.8,40.4,25.16,NNW,338,0.0,0.0,65,0.00,,---,0.00,VWS V14.01,2013-07-02 08:55:00,
2013-07-02 03:56:00,51.8,40.4,25.16,NNW,338,0.0,0.0,65,0.00,,---,0.00,VWS V14.01,2013-07-02 08:56:00,
2013-07-02 03:59:00,51.4,40.1,25.16,NNW,338,0.0,0.0,65,0.00,,---,0.00,VWS V14.01,2013-07-02 08:59:00,
2013-07-02 04:00:00,51.4,40.1,25.16,NNW,338,0.0,0.0,65,0.00,,---,0.00,VWS V14.01,2013-07-02 09:00:00,
2013-07-02 04:01:00,51.4,40.1,25.16,NNW,338,0.0,0.0,65,0.00,,---,0.00,VWS V14.01,2013-07-02 09:01:00,
2013-07-02 04:05:00,51.4,40.1,25.16,NNW,338,0.0,0.0,65,0.00,,---,0.00,VWS V14.01,2013-07-02 09:05:00,
2013-07-02 04:06:00,51.4,40.1,25.16,NNW,338,0.0,0.0,65,0.00,,---,0.00,VWS V14.01,2013-07-02 09:06:00,
2013-07-02 04:10:00,51.4,40.1,25.16,NNW,338,0.0,0.0,65,0.00,,---,0.00,VWS V14.01,2013-07-02 09:10:00,
2013-07-02 04:11:00,51.4,40.1,25.16,NNW,338,0.0,0.0,65,0.00,,---,0.00,VWS V14.01,2013-07-02 09:11:00,
2013-07-02 04:15:00,50.5,39.2,25.16,NNW,338,0.0,0.0,65,0.00,,---,0.00,VWS V14.01,2013-07-02 09:15:00,
2013-07-02 04:16:00,50.5,39.2,25.16,NNW,338,0.0,0.0,65,0.00,,---,0.00,VWS V14.01,2013-07-02 09:16:00,
2013-07-02 04:20:00,50.4,39.5,25.16,NNW,338,0.0,0.0,66,0.00,,---,0.00,VWS V14.01,2013-07-02 09:20:00,
2013-07-02 04:21:00,50.4,39.5,25.16,NNW,338,0.0,0.0,66,0.00,,---,0.00,VWS V14.01,2013-07-02 09:21:00,
2013-07-02 04:25:00,50.2,39.3,25.16,NNW,338,0.0,0.0,66,0.00,,---,0.00,VWS V14.01,2013-07-02 09:25:00,
2013-07-02 04:26:00,50.2,39.3,25.16,NNW,338,0.0,0.0,66,0.00,,---,0.00,VWS V14.01,2013-07-02 09:26:00,
2013-07-02 04:27:00,50.2,39.3,25.16,NNW,338,0.0,0.0,66,0.00,,---,0.00,VWS V14.01,2013-07-02 09:27:00,
2013-07-02 04:30:00,50.2,39.3,25.16,NNW,338,0.0,0.0,66,0.00,,---,0.00,VWS V14.01,2013-07-02 09:30:00,
2013-07-02 04:31:00,50.2,39.3,25.16,NNW,338,0.0,0.0,66,0.00,,---,0.00,VWS V14.01,2013-07-02 09:31:00,
2013-07-02 04:32:00,50.2,39.3,25.16,NNW,338,0.0,0.0,66,0.00,,---,0.00,VWS V14.01,2013-07-02 09:32:00,
2013-07-02 04:35:00,50.2,39.3,25.16,NNW,338,0.0,0.0,66,0.00,,---,0.00,VWS V14.01,2013-07-02 09:35:00,
2013-07-02 04:36:00,50.2,39.3,25.16,NNW,338,0.0,0.0,66,0.00,,---,0.00,VWS V14.01,2013-07-02 09:36:00,
2013-07-02 04:37:00,50.2,39.3,25.16,NNW,338,0.0,0.0,66,0.00,,---,0.00,VWS V14.01,2013-07-02 09:37:00,
2013-07-02 04:40:00,50.5,40.0,25.16,NNW,338,0.0,0.0,67,0.00,,---,0.00,VWS V14.01,2013-07-02 09:40:00,
2013-07-02 04:41:00,50.5,40.0,25.16,NNW,338,0.0,0.0,67,0.00,,---,0.00,VWS V14.01,2013-07-02 09:41:00,
2013-07-02 04:42:00,50.5,40.0,25.16,NNW,338,0.0,0.0,67,0.00,,---,0.00,VWS V14.01,2013-07-02 09:42:00,
2013-07-02 04:45:00,50.5,40.0,25.16,NNW,338,0.0,0.0,67,0.00,,---,0.00,VWS V14.01,2013-07-02 09:45:00,
2013-07-02 04:46:00,50.5,40.0,25.16,NNW,338,0.0,0.0,67,0.00,,---,0.00,VWS V14.01,2013-07-02 09:46:00,
2013-07-02 04:47:00,50.5,40.0,25.16,NNW,338,0.0,0.0,67,0.00,,---,0.00,VWS V14.01,2013-07-02 09:47:00,
2013-07-02 04:50:00,50.7,40.6,25.16,NNW,338,0.0,0.0,68,0.00,,---,0.00,VWS V14.01,2013-07-02 09:50:00,
2013-07-02 04:52:00,50.9,40.7,25.16,NNW,338,0.0,0.0,68,0.00,,---,0.00,VWS V14.01,2013-07-02 09:52:00,
2013-07-02 04:55:00,50.9,40.7,25.16,NNW,338,0.0,0.0,68,0.00,,---,0.00,VWS V14.01,2013-07-02 09:55:00,
2013-07-02 04:57:00,50.9,40.7,25.16,NNW,338,0.0,0.0,68,0.00,,---,0.00,VWS V14.01,2013-07-02 09:57:00,
2013-07-02 04:58:00,50.9,40.7,25.16,NNW,338,0.0,0.0,68,0.00,,---,0.00,VWS V14.01,2013-07-02 09:58:00,
2013-07-02 05:01:00,50.9,40.7,25.16,NNW,338,0.0,0.0,68,0.00,,---,0.00,VWS V14.01,2013-07-02 10:01:00,
2013-07-02 05:02:00,50.9,40.7,25.16,NNW,338,0.0,0.0,68,0.00,,---,0.00,VWS V14.01,2013-07-02 10:02:00,
2013-07-02 05:03:00,50.9,40.7,25.16,NNW,338,0.0,0.0,68,0.00,,---,0.00,VWS V14.01,2013-07-02 10:03:00,
2013-07-02 05:06:00,50.5,40.0,25.16,NNW,338,0.0,0.0,67,0.00,,---,0.00,VWS V14.01,2013-07-02 10:06:00,
2013-07-02 05:07:00,50.5,40.0,25.16,NNW,338,0.0,0.0,67,0.00,,---,0.00,VWS V14.01,2013-07-02 10:07:00,
2013-07-02 05:08:00,50.5,40.0,25.16,NNW,338,0.0,0.0,67,0.00,,---,0.00,VWS V14.01,2013-07-02 10:08:00,
2013-07-02 05:09:00,50.5,40.0,25.16,NNW,338,0.0,0.0,67,0.00,,---,0.00,VWS V14.01,2013-07-02 10:09:00,
2013-07-02 05:11:00,50.5,40.0,25.16,NNW,335,0.0,0.0,67,0.00,,---,0.00,VWS V14.01,2013-07-02 10:11:00,
2013-07-02 05:12:00,50.5,40.0,25.16,NNW,335,0.0,0.0,67,0.00,,---,0.00,VWS V14.01,2013-07-02 10:12:00,
2013-07-02 05:14:00,50.5,40.0,25.16,NNW,338,3.1,3.1,67,0.00,,---,0.00,VWS V14.01,2013-07-02 10:14:00,
2013-07-02 05:16:00,50.4,40.2,25.16,NNW,345,0.0,3.1,68,0.00,,---,0.00,VWS V14.01,2013-07-02 10:16:00,
2013-07-02 05:17:00,50.4,40.2,25.16,NNW,345,0.0,0.0,68,0.00,,---,0.00,VWS V14.01,2013-07-02 10:17:00,
2013-07-02 05:18:00,50.4,40.2,25.16,NNW,346,0.0,0.0,68,0.00,,---,0.00,VWS V14.01,2013-07-02 10:18:00,
2013-07-02 05:19:00,50.4,40.2,25.16,NNW,346,0.0,0.0,68,0.00,,---,0.00,VWS V14.01,2013-07-02 10:19:00,
2013-07-02 05:22:00,50.4,40.2,25.16,NNW,330,5.4,5.4,68,0.00,,---,0.00,VWS V14.01,2013-07-02 10:22:00,
2013-07-02 05:23:00,50.4,40.2,25.16,NNW,327,2.7,5.4,68,0.00,,---,0.00,VWS V14.01,2013-07-02 10:23:00,
2013-07-02 05:24:00,50.4,40.2,25.16,NNW,327,2.7,2.7,68,0.00,,---,0.00,VWS V14.01,2013-07-02 10:24:00,
2013-07-02 05:27:00,50.2,40.4,25.16,NNW,332,3.1,3.1,69,0.00,,---,0.00,VWS V14.01,2013-07-02 10:27:00,
2013-07-02 05:28:00,50.2,40.4,25.16,NNW,332,3.1,3.1,69,0.00,,---,0.00,VWS V14.01,2013-07-02 10:28:00,
2013-07-02 05:29:00,50.2,40.4,25.16,NNW,341,0.0,0.0,69,0.00,,---,0.00,VWS V14.01,2013-07-02 10:29:00,
2013-07-02 05:32:00,50.0,39.9,25.16,North,349,0.0,0.0,68,0.00,,---,0.00,VWS V14.01,2013-07-02 10:32:00,
2013-07-02 05:33:00,50.0,39.9,25.16,North,349,0.0,0.0,68,0.00,,---,0.00,VWS V14.01,2013-07-02 10:33:00,
2013-07-02 05:34:00,50.0,39.9,25.16,North,349,0.0,0.0,68,0.00,,---,0.00,VWS V14.01,2013-07-02 10:34:00,
2013-07-02 05:37:00,50.0,39.9,25.16,North,349,0.0,0.0,68,0.00,,---,0.00,VWS V14.01,2013-07-02 10:37:00,
2013-07-02 05:38:00,50.0,39.9,25.16,North,353,0.0,0.0,68,0.00,,---,0.00,VWS V14.01,2013-07-02 10:38:00,
2013-07-02 05:39:00,50.0,39.9,25.16,North,353,0.0,0.0,68,0.00,,---,0.00,VWS V14.01,2013-07-02 10:39:00,
2013-07-02 05:43:00,49.3,39.2,25.16,North,353,0.0,0.0,68,0.00,,---,0.00,VWS V14.01,2013-07-02 10:43:00,
2013-07-02 05:44:00,49.3,39.2,25.16,North,353,0.0,0.0,68,0.00,,---,0.00,VWS V14.01,2013-07-02 10:44:00,
2013-07-02 05:45:00,49.3,39.2,25.16,North,353,0.0,0.0,68,0.00,,---,0.00,VWS V14.01,2013-07-02 10:45:00,
2013-07-02 05:48:00,48.9,38.8,25.16,North,353,0.0,0.0,68,0.00,,---,0.00,VWS V14.01,2013-07-02 10:48:00,
2013-07-02 05:49:00,48.9,38.8,25.16,North,353,0.0,0.0,68,0.00,,---,0.00,VWS V14.01,2013-07-02 10:49:00,
2013-07-02 05:50:00,48.7,38.7,25.16,North,353,0.0,0.0,68,0.00,,---,0.00,VWS V14.01,2013-07-02 10:50:00,
2013-07-02 05:53:00,48.7,38.7,25.16,North,353,0.0,0.0,68,0.00,,---,0.00,VWS V14.01,2013-07-02 10:53:00,
2013-07-02 05:54:00,48.7,38.7,25.16,North,353,0.0,0.0,68,0.00,,---,0.00,VWS V14.01,2013-07-02 10:54:00,
2013-07-02 05:55:00,48.7,38.7,25.16,North,353,0.0,0.0,68,0.00,,---,0.00,VWS V14.01,2013-07-02 10:55:00,
2013-07-02 05:57:00,48.7,38.7,25.16,North,353,0.0,0.0,68,0.00,,---,0.00,VWS V14.01,2013-07-02 10:57:00,
2013-07-02 05:58:00,48.7,38.7,25.16,North,353,0.0,0.0,68,0.00,,---,0.00,VWS V14.01,2013-07-02 10:58:00,
2013-07-02 05:59:00,48.7,39.0,25.16,North,353,0.0,0.0,69,0.00,,---,0.00,VWS V14.01,2013-07-02 10:59:00,
2013-07-02 06:00:00,48.7,39.0,25.16,North,353,0.0,0.0,69,0.00,,---,0.00,VWS V14.01,2013-07-02 11:00:00,
2013-07-02 06:02:00,48.7,39.0,25.16,North,353,0.0,0.0,69,0.00,,---,0.00,VWS V14.01,2013-07-02 11:02:00,
2013-07-02 06:04:00,48.7,39.0,25.16,North,353,0.0,0.0,69,0.00,,---,0.00,VWS V14.01,2013-07-02 11:04:00,
2013-07-02 06:05:00,48.7,39.0,25.16,North,353,0.0,0.0,69,0.00,,---,0.00,VWS V14.01,2013-07-02 11:05:00,
2013-07-02 06:08:00,48.9,39.6,25.16,North,353,0.0,0.0,70,0.00,,---,0.00,VWS V14.01,2013-07-02 11:08:00,
2013-07-02 06:09:00,48.9,39.6,25.16,North,353,0.0,0.0,70,0.00,,---,0.00,VWS V14.01,2013-07-02 11:09:00,
2013-07-02 06:10:00,48.9,39.6,25.16,NNW,344,0.0,0.0,70,0.00,,---,0.00,VWS V14.01,2013-07-02 11:10:00,
2013-07-02 06:13:00,48.9,39.6,25.16,NNW,333,3.1,3.1,70,0.00,,---,0.00,VWS V14.01,2013-07-02 11:13:00,
2013-07-02 06:14:00,49.1,39.8,25.16,NNW,333,3.1,3.1,70,0.00,,---,0.00,VWS V14.01,2013-07-02 11:14:00,
2013-07-02 06:15:00,49.1,39.8,25.16,NNW,338,0.0,3.1,70,0.00,,---,0.00,VWS V14.01,2013-07-02 11:15:00,
2013-07-02 06:16:00,49.1,39.8,25.16,NNW,338,0.0,3.1,70,0.00,,---,0.00,VWS V14.01,2013-07-02 11:16:00,
2013-07-02 06:18:00,49.1,39.8,25.16,NNW,338,0.0,0.0,70,0.00,,---,0.00,VWS V14.01,2013-07-02 11:18:00,
2013-07-02 06:19:00,49.1,39.8,25.16,NNW,338,0.0,0.0,70,0.00,,---,0.00,VWS V14.01,2013-07-02 11:19:00,
2013-07-02 06:20:00,49.1,39.8,25.16,NNW,338,0.0,0.0,70,0.00,,---,0.00,VWS V14.01,2013-07-02 11:20:00,
2013-07-02 06:21:00,49.1,39.8,25.16,NNW,338,0.0,0.0,70,0.00,,---,0.00,VWS V14.01,2013-07-02 11:21:00,
2013-07-02 06:23:00,49.1,39.8,25.16,NNW,335,3.1,3.1,70,0.00,,---,0.00,VWS V14.01,2013-07-02 11:23:00,
2013-07-02 06:24:00,49.1,39.8,25.16,NNW,335,3.1,3.1,70,0.00,,---,0.00,VWS V14.01,2013-07-02 11:24:00,
2013-07-02 06:25:00,49.1,39.8,25.16,NNW,335,3.1,3.1,70,0.00,,---,0.00,VWS V14.01,2013-07-02 11:25:00,
2013-07-02 06:26:00,49.1,39.8,25.16,NNW,335,3.1,3.1,70,0.00,,---,0.00,VWS V14.01,2013-07-02 11:26:00,
2013-07-02 06:28:00,49.1,39.8,25.16,NNW,333,0.0,0.0,70,0.00,,---,0.00,VWS V14.01,2013-07-02 11:28:00,
2013-07-02 06:29:00,49.1,39.8,25.16,NNW,333,0.0,0.0,70,0.00,,---,0.00,VWS V14.01,2013-07-02 11:29:00,
2013-07-02 06:31:00,49.1,39.8,25.16,NNW,333,0.0,0.0,70,0.00,,---,0.00,VWS V14.01,2013-07-02 11:31:00,
2013-07-02 06:32:00,49.1,39.8,25.16,NNW,333,0.0,0.0,70,0.00,,---,0.00,VWS V14.01,2013-07-02 11:32:00,
2013-07-02 06:33:00,49.1,39.8,25.16,NNW,333,0.0,0.0,70,0.00,,---,0.00,VWS V14.01,2013-07-02 11:33:00,
2013-07-02 06:35:00,49.1,40.1,25.19,NNW,333,0.0,0.0,71,0.00,,---,0.00,VWS V14.01,2013-07-02 11:35:00,
2013-07-02 06:36:00,49.1,40.1,25.19,NNW,333,0.0,0.0,71,0.00,,---,0.00,VWS V14.01,2013-07-02 11:36:00,
2013-07-02 06:37:00,49.1,40.1,25.19,NNW,333,0.0,0.0,71,0.00,,---,0.00,VWS V14.01,2013-07-02 11:37:00,
2013-07-02 06:38:00,49.1,40.1,25.19,NW,326,0.0,0.0,71,0.00,,---,0.00,VWS V14.01,2013-07-02 11:38:00,
2013-07-02 06:40:00,49.1,40.1,25.19,NW,326,0.0,0.0,71,0.00,,---,0.00,VWS V14.01,2013-07-02 11:40:00,
2013-07-02 06:41:00,49.1,40.1,25.19,NW,326,0.0,0.0,71,0.00,,---,0.00,VWS V14.01,2013-07-02 11:41:00,
2013-07-02 06:42:00,49.1,40.1,25.19,NW,326,0.0,0.0,71,0.00,,---,0.00,VWS V14.01,2013-07-02 11:42:00,
2013-07-02 06:43:00,49.1,40.1,25.19,NW,326,0.0,0.0,71,0.00,,---,0.00,VWS V14.01,2013-07-02 11:43:00,
2013-07-02 06:46:00,49.1,40.1,25.19,NW,325,0.0,0.0,71,0.00,,---,0.00,VWS V14.01,2013-07-02 11:46:00,
2013-07-02 06:47:00,49.1,40.1,25.19,NW,325,0.0,0.0,71,0.00,,---,0.00,VWS V14.01,2013-07-02 11:47:00,
2013-07-02 06:48:00,49.1,40.1,25.19,NW,325,0.0,0.0,71,0.00,,---,0.00,VWS V14.01,2013-07-02 11:48:00,
2013-07-02 06:52:00,48.7,39.8,25.19,NW,325,0.0,0.0,71,0.00,,---,0.00,VWS V14.01,2013-07-02 11:52:00,
2013-07-02 07:27:00,49.8,41.5,25.19,NW,325,0.0,0.0,73,0.00,,---,0.00,VWS V14.01,2013-07-02 12:27:00,
2013-07-02 07:51:00,52.5,44.1,25.19,NW,325,0.0,0.0,73,0.00,,---,0.00,VWS V14.01,2013-07-02 12:51:00,
2013-07-02 07:52:00,52.7,44.3,25.19,NW,325,0.0,0.0,73,0.00,,---,0.00,VWS V14.01,2013-07-02 12:52:00,
2013-07-02 07:57:00,52.7,44.3,25.19,NW,325,0.0,0.0,73,0.00,,---,0.00,VWS V14.01,2013-07-02 12:57:00,
2013-07-02 07:58:00,52.7,44.3,25.19,NW,325,0.0,0.0,73,0.00,,---,0.00,VWS V14.01,2013-07-02 12:58:00,
2013-07-02 08:03:00,54.1,46.0,25.19,NW,325,0.0,0.0,74,0.00,,---,0.00,VWS V14.01,2013-07-02 13:03:00,
2013-07-02 08:04:00,54.1,46.0,25.19,NW,324,0.0,0.0,74,0.00,,---,0.00,VWS V14.01,2013-07-02 13:04:00,
2013-07-02 08:09:00,54.9,46.7,25.19,NW,324,0.0,0.0,74,0.00,,---,0.00,VWS V14.01,2013-07-02 13:09:00,
2013-07-02 08:14:00,55.4,46.9,25.19,NW,324,0.0,0.0,73,0.00,,---,0.00,VWS V14.01,2013-07-02 13:14:00,
2013-07-02 08:15:00,55.4,46.9,25.19,NW,324,0.0,0.0,73,0.00,,---,0.00,VWS V14.01,2013-07-02 13:15:00,
2013-07-02 08:19:00,56.7,48.1,25.19,NW,324,0.0,0.0,73,0.00,,---,0.00,VWS V14.01,2013-07-02 13:19:00,
2013-07-02 08:20:00,56.7,48.1,25.19,NW,324,0.0,0.0,73,0.00,,---,0.00,VWS V14.01,2013-07-02 13:20:00,
2013-07-02 08:21:00,57.0,48.1,25.19,NW,324,0.0,0.0,72,0.00,,---,0.00,VWS V14.01,2013-07-02 13:21:00,
2013-07-02 08:24:00,57.0,48.1,25.19,NW,324,0.0,0.0,72,0.00,,---,0.00,VWS V14.01,2013-07-02 13:24:00,
2013-07-02 08:25:00,57.9,48.2,25.19,NW,324,0.0,0.0,70,0.00,,---,0.00,VWS V14.01,2013-07-02 13:25:00,
2013-07-02 08:26:00,57.9,48.2,25.19,NW,324,0.0,0.0,70,0.00,,---,0.00,VWS V14.01,2013-07-02 13:26:00,
2013-07-02 08:29:00,58.3,48.2,25.19,NW,324,0.0,0.0,69,0.00,,---,0.00,VWS V14.01,2013-07-02 13:29:00,
2013-07-02 08:30:00,58.3,48.2,25.19,NW,324,0.0,0.0,69,0.00,,---,0.00,VWS V14.01,2013-07-02 13:30:00,
2013-07-02 08:31:00,58.3,48.2,25.19,NW,324,0.0,0.0,69,0.00,,---,0.00,VWS V14.01,2013-07-02 13:31:00,
2013-07-02 08:34:00,59.2,46.2,25.19,NW,325,0.0,0.0,62,0.00,,---,0.00,VWS V14.01,2013-07-02 13:34:00,
2013-07-02 08:35:00,59.2,46.2,25.19,NW,326,3.1,3.1,62,0.00,,---,0.00,VWS V14.01,2013-07-02 13:35:00,
2013-07-02 08:36:00,59.2,46.2,25.19,NW,326,2.7,2.7,62,0.00,,---,0.00,VWS V14.01,2013-07-02 13:36:00,
2013-07-02 08:40:00,59.2,46.2,25.19,NW,325,2.7,3.1,62,0.00,,---,0.00,VWS V14.01,2013-07-02 13:40:00,
2013-07-02 08:42:00,59.2,46.2,25.19,NW,326,2.7,2.7,62,0.00,,---,0.00,VWS V14.01,2013-07-02 13:42:00,
2013-07-02 08:45:00,61.3,44.6,25.19,NW,326,2.7,2.7,54,0.00,,---,0.00,VWS V14.01,2013-07-02 13:45:00,
2013-07-02 08:46:00,61.3,44.6,25.19,NW,326,2.7,2.7,54,0.00,,---,0.00,VWS V14.01,2013-07-02 13:46:00,
2013-07-02 08:47:00,61.3,44.6,25.19,NW,326,0.0,2.7,54,0.00,,---,0.00,VWS V14.01,2013-07-02 13:47:00,
2013-07-02 08:50:00,62.2,43.4,25.19,NW,326,0.0,0.0,50,0.00,,---,0.00,VWS V14.01,2013-07-02 13:50:00,
2013-07-02 08:51:00,62.8,42.8,25.19,NW,326,0.0,0.0,48,0.00,,---,0.00,VWS V14.01,2013-07-02 13:51:00,
2013-07-02 08:52:00,62.8,42.8,25.19,NW,326,0.0,0.0,48,0.00,,---,0.00,VWS V14.01,2013-07-02 13:52:00,
2013-07-02 08:56:00,63.1,42.0,25.19,NNW,328,0.0,2.7,46,0.00,,---,0.00,VWS V14.01,2013-07-02 13:56:00,
2013-07-02 08:57:00,63.1,42.0,25.19,NNW,328,0.0,0.0,46,0.00,,---,0.00,VWS V14.01,2013-07-02 13:57:00,
2013-07-02 09:01:00,64.0,37.9,25.19,NNW,329,0.0,0.0,38,0.00,,---,0.00,VWS V14.01,2013-07-02 14:01:00,
2013-07-02 09:02:00,64.0,37.9,25.19,NNW,329,2.2,2.2,38,0.00,,---,0.00,VWS V14.01,2013-07-02 14:02:00,
2013-07-02 09:06:00,64.0,37.9,25.19,NNW,329,0.0,0.0,38,0.00,,---,0.00,VWS V14.01,2013-07-02 14:06:00,
2013-07-02 09:07:00,64.0,37.9,25.19,NNW,329,0.0,0.0,38,0.00,,---,0.00,VWS V14.01,2013-07-02 14:07:00,
2013-07-02 09:08:00,66.2,37.0,25.19,NNW,329,0.0,0.0,34,0.00,,---,0.00,VWS V14.01,2013-07-02 14:08:00,
2013-07-02 09:11:00,66.4,37.2,25.19,NNW,329,0.0,0.0,34,0.00,,---,0.00,VWS V14.01,2013-07-02 14:11:00,
2013-07-02 09:12:00,66.4,37.2,25.19,NNW,329,0.0,0.0,34,0.00,,---,0.00,VWS V14.01,2013-07-02 14:12:00,
2013-07-02 09:13:00,66.4,37.2,25.19,NNW,329,0.0,0.0,34,0.00,,---,0.00,VWS V14.01,2013-07-02 14:13:00,
2013-07-02 09:16:00,66.4,37.2,25.19,NNW,329,0.0,0.0,34,0.00,,---,0.00,VWS V14.01,2013-07-02 14:16:00,
2013-07-02 09:17:00,68.0,35.4,25.19,NNW,329,0.0,0.0,30,0.00,,---,0.00,VWS V14.01,2013-07-02 14:17:00,
2013-07-02 09:18:00,68.5,35.9,25.19,NNW,329,0.0,0.0,30,0.00,,---,0.00,VWS V14.01,2013-07-02 14:18:00,
2013-07-02 09:21:00,69.1,34.6,25.19,NNW,329,0.0,0.0,28,0.00,,---,0.00,VWS V14.01,2013-07-02 14:21:00,
2013-07-02 09:23:00,69.1,34.6,25.19,NNW,329,0.0,0.0,28,0.00,,---,0.00,VWS V14.01,2013-07-02 14:23:00,
2013-07-02 09:24:00,69.1,34.6,25.19,NNW,329,0.0,0.0,28,0.00,,---,0.00,VWS V14.01,2013-07-02 14:24:00,
2013-07-02 09:26:00,69.1,34.6,25.19,NNW,329,0.0,0.0,28,0.00,,---,0.00,VWS V14.01,2013-07-02 14:26:00,
2013-07-02 09:28:00,69.1,34.6,25.19,NNW,329,0.0,0.0,28,0.00,,---,0.00,VWS V14.01,2013-07-02 14:28:00,
2013-07-02 09:29:00,69.1,34.6,25.19,South,177,0.0,0.0,28,0.00,,---,0.00,VWS V14.01,2013-07-02 14:29:00,
2013-07-02 09:36:00,70.3,30.8,25.19,ESE,107,3.6,3.6,23,0.00,,---,0.00,VWS V14.01,2013-07-02 14:36:00,
2013-07-02 09:38:00,70.3,30.8,25.19,ESE,107,3.6,3.6,23,0.00,,---,0.00,VWS V14.01,2013-07-02 14:38:00,
2013-07-02 09:41:00,70.3,30.8,25.19,SE,138,6.3,6.3,23,0.00,,---,0.00,VWS V14.01,2013-07-02 14:41:00,
2013-07-02 09:43:00,68.7,29.5,25.19,SSE,159,5.4,5.4,23,0.00,,---,0.00,VWS V14.01,2013-07-02 14:43:00,
2013-07-02 09:47:00,68.5,29.3,25.19,SE,146,3.6,5.8,23,0.00,,---,0.00,VWS V14.01,2013-07-02 14:47:00,
2013-07-02 09:48:00,68.5,29.3,25.19,SE,139,5.8,5.8,23,0.00,,---,0.00,VWS V14.01,2013-07-02 14:48:00,
2013-07-02 09:52:00,68.5,29.3,25.19,ESE,118,7.6,7.6,23,0.00,,---,0.00,VWS V14.01,2013-07-02 14:52:00,
2013-07-02 09:53:00,68.5,29.3,25.19,South,184,8.1,8.1,23,0.00,,---,0.00,VWS V14.01,2013-07-02 14:53:00,
2013-07-02 09:57:00,68.5,29.3,25.19,SE,133,5.4,5.4,23,0.00,,---,0.00,VWS V14.01,2013-07-02 14:57:00,
2013-07-02 09:58:00,68.5,29.3,25.19,SE,128,6.3,6.3,23,0.00,,---,0.00,VWS V14.01,2013-07-02 14:58:00,
2013-07-02 09:59:00,68.5,29.3,25.19,SE,128,6.3,6.3,23,0.00,,---,0.00,VWS V14.01,2013-07-02 14:59:00,
2013-07-02 10:07:00,68.9,29.6,25.19,East,97,8.1,8.1,23,0.00,,---,0.00,VWS V14.01,2013-07-02 15:07:00,
2013-07-02 10:12:00,69.3,29.9,25.19,ESE,118,8.1,8.1,23,0.00,,---,0.00,VWS V14.01,2013-07-02 15:12:00,
2013-07-02 10:13:00,69.3,29.9,25.19,ESE,106,7.2,8.1,23,0.00,,---,0.00,VWS V14.01,2013-07-02 15:13:00,
2013-07-02 10:17:00,70.0,29.4,25.19,SSW,209,4.0,4.0,22,0.00,,---,0.00,VWS V14.01,2013-07-02 15:17:00,
2013-07-02 10:18:00,70.0,29.4,25.19,SSW,209,4.0,4.0,22,0.00,,---,0.00,VWS V14.01,2013-07-02 15:18:00,
2013-07-02 10:23:00,70.0,29.4,25.19,SSE,168,8.7,8.7,22,0.00,,---,0.00,VWS V14.01,2013-07-02 15:23:00,
2013-07-02 10:28:00,69.8,29.3,25.19,SE,139,8.1,8.1,22,0.00,,---,0.00,VWS V14.01,2013-07-02 15:28:00,
2013-07-02 10:29:00,69.8,29.3,25.19,SE,139,8.1,8.1,22,0.00,,---,0.00,VWS V14.01,2013-07-02 15:29:00,
2013-07-02 10:33:00,70.0,29.4,25.19,SE,143,6.3,6.3,22,0.00,,---,0.00,VWS V14.01,2013-07-02 15:33:00,
2013-07-02 10:34:00,70.0,29.4,25.19,SE,143,6.3,6.3,22,0.00,,---,0.00,VWS V14.01,2013-07-02 15:34:00,
2013-07-02 10:38:00,70.5,29.9,25.19,South,178,5.4,5.4,22,0.00,,---,0.00,VWS V14.01,2013-07-02 15:38:00,
2013-07-02 10:39:00,70.5,29.9,25.19,South,178,5.4,5.4,22,0.00,,---,0.00,VWS V14.01,2013-07-02 15:39:00,
2013-07-02 10:44:00,70.5,29.9,25.19,ESE,117,7.2,7.2,22,0.00,,---,0.00,VWS V14.01,2013-07-02 15:44:00,
2013-07-02 10:49:00,70.5,29.9,25.19,ESE,103,5.8,5.8,22,0.00,,---,0.00,VWS V14.01,2013-07-02 15:49:00,
2013-07-02 10:50:00,70.5,29.9,25.19,SE,142,5.4,5.8,22,0.00,,---,0.00,VWS V14.01,2013-07-02 15:50:00,
2013-07-02 10:55:00,71.1,30.3,25.19,SE,133,3.6,3.6,22,0.00,,---,0.00,VWS V14.01,2013-07-02 15:55:00,
2013-07-02 11:00:00,70.7,30.0,25.19,South,174,4.0,4.0,22,0.00,,---,0.00,VWS V14.01,2013-07-02 16:00:00,
2013-07-02 11:01:00,70.9,30.2,25.19,SE,146,8.3,8.3,22,0.00,,---,0.00,VWS V14.01,2013-07-02 16:01:00,
2013-07-02 11:05:00,71.1,30.3,25.19,South,170,0.0,5.4,22,0.00,,---,0.00,VWS V14.01,2013-07-02 16:05:00,
2013-07-02 11:06:00,71.1,30.3,25.19,SSE,167,5.8,5.8,22,0.00,,---,0.00,VWS V14.01,2013-07-02 16:06:00,
2013-07-02 11:10:00,71.1,30.3,25.19,SSE,165,5.8,5.8,22,0.00,,---,0.00,VWS V14.01,2013-07-02 16:10:00,
2013-07-02 11:12:00,71.1,30.3,25.19,SSW,200,5.8,5.8,22,0.00,,---,0.00,VWS V14.01,2013-07-02 16:12:00,
2013-07-02 11:15:00,72.7,30.5,25.19,South,188,6.3,7.2,21,0.00,,---,0.00,VWS V14.01,2013-07-02 16:15:00,
2013-07-02 11:16:00,72.7,30.5,25.19,SE,136,8.7,8.7,21,0.00,,---,0.00,VWS V14.01,2013-07-02 16:16:00,
2013-07-02 11:17:00,72.7,30.5,25.19,SE,136,8.7,8.7,21,0.00,,---,0.00,VWS V14.01,2013-07-02 16:17:00,
2013-07-02 11:20:00,73.2,31.0,25.19,SSE,158,3.6,3.6,21,0.00,,---,0.00,VWS V14.01,2013-07-02 16:20:00,
2013-07-02 11:21:00,73.2,31.0,25.19,SSE,158,3.6,3.6,21,0.00,,---,0.00,VWS V14.01,2013-07-02 16:21:00,
2013-07-02 11:22:00,73.2,31.0,25.19,SSE,158,3.6,3.6,21,0.00,,---,0.00,VWS V14.01,2013-07-02 16:22:00,
2013-07-02 11:25:00,73.2,31.0,25.19,South,173,3.6,3.6,21,0.00,,---,0.00,VWS V14.01,2013-07-02 16:25:00,
2013-07-02 11:26:00,73.2,31.0,25.19,South,173,3.6,3.6,21,0.00,,---,0.00,VWS V14.01,2013-07-02 16:26:00,
2013-07-02 11:28:00,73.4,31.1,25.19,South,173,3.6,3.6,21,0.00,,---,0.00,VWS V14.01,2013-07-02 16:28:00,
2013-07-02 11:30:00,73.6,31.3,25.19,SE,124,4.9,4.9,21,0.00,,---,0.00,VWS V14.01,2013-07-02 16:30:00,
2013-07-02 11:31:00,73.6,31.3,25.19,SE,124,4.9,4.9,21,0.00,,---,0.00,VWS V14.01,2013-07-02 16:31:00,
2013-07-02 11:33:00,73.6,31.3,25.19,SE,137,6.3,6.3,21,0.00,,---,0.00,VWS V14.01,2013-07-02 16:33:00,
2013-07-02 11:35:00,73.6,31.3,25.19,SSE,162,5.4,5.4,21,0.00,,---,0.00,VWS V14.01,2013-07-02 16:35:00,
2013-07-02 11:36:00,73.6,31.3,25.19,SSE,162,5.4,5.4,21,0.00,,---,0.00,VWS V14.01,2013-07-02 16:36:00,
2013-07-02 11:38:00,73.6,31.3,25.19,SSE,162,5.4,5.4,21,0.00,,---,0.00,VWS V14.01,2013-07-02 16:38:00,
2013-07-02 11:39:00,73.6,31.3,25.19,SSE,162,5.4,5.4,21,0.00,,---,0.00,VWS V14.01,2013-07-02 16:39:00,
2013-07-02 11:41:00,73.6,31.3,25.19,South,170,7.6,7.6,21,0.00,,---,0.00,VWS V14.01,2013-07-02 16:41:00,
2013-07-02 11:43:00,74.1,31.7,25.19,South,169,5.8,5.8,21,0.00,,---,0.00,VWS V14.01,2013-07-02 16:43:00,
2013-07-02 11:44:00,74.3,31.9,25.19,SE,143,5.4,5.8,21,0.00,,---,0.00,VWS V14.01,2013-07-02 16:44:00,
2013-07-02 11:46:00,74.3,31.9,25.19,SE,143,5.4,5.4,21,0.00,,---,0.00,VWS V14.01,2013-07-02 16:46:00,
2013-07-02 11:48:00,74.3,31.9,25.19,SSW,199,2.2,2.2,21,0.00,,---,0.00,VWS V14.01,2013-07-02 16:48:00,
2013-07-02 11:50:00,74.3,31.9,25.19,SSW,199,2.2,2.2,21,0.00,,---,0.00,VWS V14.01,2013-07-02 16:50:00,
2013-07-02 11:51:00,74.3,31.9,25.19,SSE,166,5.4,5.4,21,0.00,,---,0.00,VWS V14.01,2013-07-02 16:51:00,
2013-07-02 11:53:00,75.7,29.3,25.19,SSE,163,8.1,8.1,18,0.00,,---,0.00,VWS V14.01,2013-07-02 16:53:00,
2013-07-02 11:55:00,74.5,28.2,25.19,SE,137,6.3,8.1,18,0.00,,---,0.00,VWS V14.01,2013-07-02 16:55:00,
2013-07-02 11:56:00,74.5,28.2,25.19,SE,141,8.3,8.3,18,0.00,,---,0.00,VWS V14.01,2013-07-02 16:56:00,
2013-07-02 11:57:00,74.5,28.2,25.19,South,181,5.8,8.3,18,0.00,,---,0.00,VWS V14.01,2013-07-02 16:57:00,
2013-07-02 11:59:00,74.5,28.2,25.19,SSE,157,10.1,10.1,18,0.00,,---,0.00,VWS V14.01,2013-07-02 16:59:00,
2013-07-02 12:00:00,74.5,28.2,25.19,SSE,157,10.1,10.1,18,0.00,,---,0.00,VWS V14.01,2013-07-02 17:00:00,
2013-07-02 12:02:00,74.5,28.2,25.19,SSE,157,10.1,10.1,18,0.00,,---,0.00,VWS V14.01,2013-07-02 17:02:00,
2013-07-02 12:04:00,73.9,27.8,25.19,SSE,156,5.4,10.1,18,0.00,,---,0.00,VWS V14.01,2013-07-02 17:04:00,
2013-07-02 12:05:00,73.8,27.6,25.19,SSE,156,5.4,5.4,18,0.00,,---,0.00,VWS V14.01,2013-07-02 17:05:00,
2013-07-02 12:07:00,73.8,27.6,25.19,SSE,156,5.4,5.4,18,0.00,,---,0.00,VWS V14.01,2013-07-02 17:07:00,
2013-07-02 12:08:00,73.8,27.6,25.19,SSE,152,7.6,8.3,18,0.00,,---,0.00,VWS V14.01,2013-07-02 17:08:00,
2013-07-02 12:10:00,73.0,28.4,25.19,SSE,152,7.6,7.6,19,0.00,,---,0.00,VWS V14.01,2013-07-02 17:10:00,
2013-07-02 12:12:00,73.0,28.4,25.19,SSE,152,7.6,7.6,19,0.00,,---,0.00,VWS V14.01,2013-07-02 17:12:00,
2013-07-02 12:13:00,73.0,28.4,25.19,SE,139,3.6,3.6,19,0.00,,---,0.00,VWS V14.01,2013-07-02 17:13:00,
2013-07-02 12:15:00,73.0,28.4,25.19,South,173,5.4,5.4,19,0.00,,---,0.00,VWS V14.01,2013-07-02 17:15:00,
2013-07-02 12:17:00,73.0,28.4,25.19,SE,137,3.6,5.4,19,0.00,,---,0.00,VWS V14.01,2013-07-02 17:17:00,
2013-07-02 12:18:00,73.4,27.4,25.19,SE,137,3.6,3.6,18,0.00,,---,0.00,VWS V14.01,2013-07-02 17:18:00,
2013-07-02 12:20:00,73.6,27.5,25.19,ESE,116,8.7,8.7,18,0.00,,---,0.00,VWS V14.01,2013-07-02 17:20:00,
2013-07-02 12:21:00,73.6,27.5,25.19,South,180,4.0,8.7,18,0.00,,---,0.00,VWS V14.01,2013-07-02 17:21:00,
2013-07-02 12:22:00,73.6,27.5,25.19,South,180,4.0,4.0,18,0.00,,---,0.00,VWS V14.01,2013-07-02 17:22:00,
2013-07-02 12:24:00,73.6,27.5,25.19,SE,137,10.1,10.1,18,0.00,,---,0.00,VWS V14.01,2013-07-02 17:24:00,
2013-07-02 12:25:00,73.6,27.5,25.19,SE,137,10.1,10.1,18,0.00,,---,0.00,VWS V14.01,2013-07-02 17:25:00,
2013-07-02 12:26:00,73.6,27.5,25.19,SSW,197,5.4,10.1,18,0.00,,---,0.00,VWS V14.01,2013-07-02 17:26:00,
2013-07-02 12:28:00,73.6,27.5,25.19,SSW,197,5.4,5.4,18,0.00,,---,0.00,VWS V14.01,2013-07-02 17:28:00,
2013-07-02 12:29:00,75.7,29.3,25.19,SSW,197,5.4,5.4,18,0.00,,---,0.00,VWS V14.01,2013-07-02 17:29:00,
2013-07-02 12:30:00,75.7,29.3,25.19,SSW,197,5.4,5.4,18,0.00,,---,0.00,VWS V14.01,2013-07-02 17:30:00,
2013-07-02 12:31:00,75.7,29.3,25.19,SSW,197,5.4,5.4,18,0.00,,---,0.00,VWS V14.01,2013-07-02 17:31:00,
2013-07-02 12:33:00,76.8,30.1,25.19,SSE,159,3.1,3.1,18,0.00,,---,0.00,VWS V14.01,2013-07-02 17:33:00,
2013-07-02 12:35:00,76.8,30.1,25.19,SE,129,8.1,8.1,18,0.00,,---,0.00,VWS V14.01,2013-07-02 17:35:00,
2013-07-02 12:36:00,76.1,29.6,25.19,SE,129,8.1,8.1,18,0.00,,---,0.00,VWS V14.01,2013-07-02 17:36:00,
2013-07-02 12:38:00,76.1,29.6,25.19,SE,143,8.7,8.7,18,0.00,,---,0.00,VWS V14.01,2013-07-02 17:38:00,
2013-07-02 12:40:00,76.1,29.6,25.19,SE,134,9.2,9.2,18,0.00,,---,0.00,VWS V14.01,2013-07-02 17:40:00,
2013-07-02 12:41:00,75.4,29.0,25.19,SE,134,9.2,9.2,18,0.00,,---,0.00,VWS V14.01,2013-07-02 17:41:00,
2013-07-02 12:42:00,75.4,29.0,25.19,SE,134,9.2,9.2,18,0.00,,---,0.00,VWS V14.01,2013-07-02 17:42:00,
2013-07-02 12:43:00,75.4,29.0,25.19,SE,138,4.0,4.0,18,0.00,,---,0.00,VWS V14.01,2013-07-02 17:43:00,
2013-07-02 12:45:00,75.0,28.7,25.19,SE,138,4.0,4.0,18,0.00,,---,0.00,VWS V14.01,2013-07-02 17:45:00,
2013-07-02 12:46:00,74.8,28.5,25.19,SE,138,4.0,4.0,18,0.00,,---,0.00,VWS V14.01,2013-07-02 17:46:00,
2013-07-02 12:47:00,74.8,28.5,25.19,SE,138,4.0,4.0,18,0.00,,---,0.00,VWS V14.01,2013-07-02 17:47:00,
2013-07-02 12:48:00,74.8,28.5,25.19,SE,138,4.0,4.0,18,0.00,,---,0.00,VWS V14.01,2013-07-02 17:48:00,
2013-07-02 12:50:00,74.8,28.5,25.19,South,183,5.8,5.8,18,0.00,,---,0.00,VWS V14.01,2013-07-02 17:50:00,
2013-07-02 12:51:00,74.8,28.5,25.19,South,183,5.8,5.8,18,0.00,,---,0.00,VWS V14.01,2013-07-02 17:51:00,
2013-07-02 12:52:00,75.6,29.1,25.19,SSE,161,4.9,5.8,18,0.00,,---,0.00,VWS V14.01,2013-07-02 17:52:00,
2013-07-02 12:54:00,75.6,29.1,25.19,SSE,161,4.9,4.9,18,0.00,,---,0.00,VWS V14.01,2013-07-02 17:54:00,
2013-07-02 12:55:00,76.1,29.6,25.19,SSE,161,4.9,4.9,18,0.00,,---,0.00,VWS V14.01,2013-07-02 17:55:00,
2013-07-02 12:56:00,76.8,30.1,25.19,SSE,161,4.9,4.9,18,0.00,,---,0.00,VWS V14.01,2013-07-02 17:56:00,
2013-07-02 12:58:00,76.8,30.1,25.19,ESE,109,8.7,8.7,18,0.00,,---,0.00,VWS V14.01,2013-07-02 17:58:00,
2013-07-02 13:23:00,75.9,29.4,25.19,SSE,160,9.6,9.6,18,0.00,,---,0.00,VWS V14.01,2013-07-02 18:23:00,
2013-07-02 13:55:00,78.1,31.2,25.19,SE,131,2.2,2.2,18,0.00,,---,0.00,VWS V14.01,2013-07-02 18:55:00,
2013-07-02 14:45:00,76.6,30.0,25.16,SE,144,3.6,3.6,18,0.00,,---,0.00,VWS V14.01,2013-07-02 19:45:00,
2013-07-02 14:46:00,76.6,30.0,25.16,SE,144,3.6,3.6,18,0.00,,---,0.00,VWS V14.01,2013-07-02 19:46:00,
2013-07-02 15:00:00,79.3,30.8,25.16,SE,135,3.1,4.0,17,0.00,,---,0.00,VWS V14.01,2013-07-02 20:00:00,
2013-07-02 15:22:00,85.1,33.9,25.16,East,83,6.7,6.7,16,0.00,,---,0.00,VWS V14.01,2013-07-02 20:22:00,
2013-07-02 15:59:00,79.7,28.0,25.13,NE,41,0.0,5.4,15,0.00,,---,0.00,VWS V14.01,2013-07-02 20:59:00,
2013-07-02 16:06:00,80.2,28.4,25.13,East,86,8.1,8.1,15,0.00,,---,0.00,VWS V14.01,2013-07-02 21:06:00,
2013-07-02 16:07:00,80.2,28.4,25.13,East,86,8.1,8.1,15,0.00,,---,0.00,VWS V14.01,2013-07-02 21:07:00,
2013-07-02 16:38:00,81.9,28.0,25.13,South,190,4.9,4.9,14,0.00,,---,0.00,VWS V14.01,2013-07-02 21:38:00,
2013-07-02 16:40:00,81.9,28.0,25.13,SSE,154,4.9,4.9,14,0.00,,---,0.00,VWS V14.01,2013-07-02 21:40:00,
2013-07-02 16:57:00,82.4,28.5,25.13,SE,143,5.4,5.4,14,0.00,,---,0.00,VWS V14.01,2013-07-02 21:57:00,
2013-07-02 16:58:00,82.4,28.5,25.13,SE,143,5.4,5.4,14,0.00,,---,0.00,VWS V14.01,2013-07-02 21:58:00,
2013-07-02 17:03:00,82.4,28.5,25.13,ESE,108,5.8,11.0,14,0.00,,---,0.00,VWS V14.01,2013-07-02 22:03:00,
2013-07-02 17:21:00,81.1,27.5,25.10,East,101,8.3,8.3,14,0.00,,---,0.00,VWS V14.01,2013-07-02 22:21:00,
2013-07-02 17:29:00,81.0,27.3,25.10,East,85,6.3,6.3,14,0.00,,---,0.00,VWS V14.01,2013-07-02 22:29:00,
2013-07-02 17:30:00,81.0,27.3,25.10,East,85,6.3,6.3,14,0.00,,---,0.00,VWS V14.01,2013-07-02 22:30:00,
2013-07-02 17:32:00,80.2,28.4,25.10,East,85,6.3,6.3,15,0.00,,---,0.00,VWS V14.01,2013-07-02 22:32:00,
2013-07-02 17:41:00,79.9,28.1,25.10,SSE,168,5.4,5.4,15,0.00,,---,0.00,VWS V14.01,2013-07-02 22:41:00,
2013-07-02 17:42:00,79.9,28.1,25.10,SSE,168,5.4,5.4,15,0.00,,---,0.00,VWS V14.01,2013-07-02 22:42:00,
2013-07-02 17:49:00,80.4,28.6,25.10,South,180,8.1,8.1,15,0.00,,---,0.00,VWS V14.01,2013-07-02 22:49:00,
2013-07-02 18:28:00,75.6,24.7,25.10,ESE,114,8.1,8.1,15,0.00,,---,0.00,VWS V14.01,2013-07-02 23:28:00,
2013-07-02 18:29:00,75.6,24.7,25.10,ESE,114,8.1,8.1,15,0.00,,---,0.00,VWS V14.01,2013-07-02 23:29:00,
2013-07-02 18:34:00,76.1,25.1,25.10,ESE,102,7.6,7.6,15,0.00,,---,0.00,VWS V14.01,2013-07-02 23:34:00,
2013-07-02 18:44:00,78.4,27.0,25.10,ESE,102,5.4,5.4,15,0.00,,---,0.00,VWS V14.01,2013-07-02 23:44:00,
2013-07-02 18:50:00,79.2,27.6,25.10,ESE,107,2.2,2.2,15,0.00,,---,0.00,VWS V14.01,2013-07-02 23:50:00,
2013-07-02 18:52:00,79.2,27.6,25.10,ESE,107,2.2,2.2,15,0.00,,---,0.00,VWS V14.01,2013-07-02 23:52:00,
2013-07-02 19:02:00,79.7,28.0,25.10,SSE,154,5.4,5.4,15,0.00,,---,0.00,VWS V14.01,2013-07-03 00:02:00,
2013-07-02 19:06:00,78.8,27.3,25.07,SSE,154,5.4,5.4,15,0.00,,---,0.00,VWS V14.01,2013-07-03 00:06:00,
2013-07-02 19:07:00,78.8,27.3,25.07,SSE,154,5.4,5.4,15,0.00,,---,0.00,VWS V14.01,2013-07-03 00:07:00,
2013-07-02 19:11:00,78.8,27.3,25.07,ESE,119,13.2,13.2,15,0.00,,---,0.00,VWS V14.01,2013-07-03 00:11:00,
2013-07-02 19:12:00,78.8,27.3,25.07,ESE,119,13.2,13.2,15,0.00,,---,0.00,VWS V14.01,2013-07-03 00:12:00,
2013-07-02 21:11:00,70.3,26.2,25.10,ESE,118,6.3,6.3,19,0.00,,---,0.00,VWS V14.01,2013-07-03 02:11:00,
2013-07-02 21:16:00,70.2,26.0,25.10,SE,145,10.1,10.1,19,0.00,,---,0.00,VWS V14.01,2013-07-03 02:16:00,
2013-07-02 21:21:00,70.2,26.0,25.10,SE,129,8.1,8.1,19,0.00,,---,0.00,VWS V14.01,2013-07-03 02:21:00,
2013-07-02 21:22:00,70.2,26.0,25.10,SE,129,8.1,8.1,19,0.00,,---,0.00,VWS V14.01,2013-07-03 02:22:00,
2013-07-02 21:26:00,69.8,25.7,25.10,ESE,111,8.7,8.7,19,0.00,,---,0.00,VWS V14.01,2013-07-03 02:26:00,
2013-07-02 21:27:00,69.6,26.8,25.10,SE,131,6.3,6.3,20,0.00,,---,0.00,VWS V14.01,2013-07-03 02:27:00,
2013-07-02 21:32:00,69.4,26.7,25.10,SE,144,5.4,5.4,20,0.00,,---,0.00,VWS V14.01,2013-07-03 02:32:00,
2013-07-02 21:37:00,69.4,26.7,25.10,SE,126,5.8,5.8,20,0.00,,---,0.00,VWS V14.01,2013-07-03 02:37:00,
2013-07-02 21:38:00,69.4,26.7,25.10,SE,126,5.8,5.8,20,0.00,,---,0.00,VWS V14.01,2013-07-03 02:38:00,
2013-07-02 21:43:00,68.7,26.1,25.10,SE,132,6.3,6.3,20,0.00,,---,0.00,VWS V14.01,2013-07-03 02:43:00,
2013-07-02 21:46:00,68.7,26.1,25.10,ESE,122,3.6,4.9,20,0.00,,---,0.00,VWS V14.01,2013-07-03 02:46:00,
2013-07-02 21:48:00,68.7,26.1,25.13,SE,138,8.7,8.7,20,0.00,,---,0.00,VWS V14.01,2013-07-03 02:48:00,
2013-07-02 21:49:00,68.7,26.1,25.13,SE,138,8.7,8.7,20,0.00,,---,0.00,VWS V14.01,2013-07-03 02:49:00,
2013-07-02 21:51:00,68.5,28.2,25.13,SE,127,5.4,5.4,22,0.00,,---,0.00,VWS V14.01,2013-07-03 02:51:00,
2013-07-02 21:53:00,68.5,28.2,25.13,ESE,111,5.4,6.3,22,0.00,,---,0.00,VWS V14.01,2013-07-03 02:53:00,
2013-07-02 21:54:00,68.5,28.2,25.13,ESE,111,5.4,5.4,22,0.00,,---,0.00,VWS V14.01,2013-07-03 02:54:00,
2013-07-02 21:56:00,68.5,28.2,25.13,SE,136,4.0,4.0,22,0.00,,---,0.00,VWS V14.01,2013-07-03 02:56:00,
2013-07-02 21:59:00,68.5,28.2,25.13,SE,136,4.0,4.0,22,0.00,,---,0.00,VWS V14.01,2013-07-03 02:59:00,
2013-07-02 22:00:00,68.5,28.2,25.13,SE,130,7.6,7.6,22,0.00,,---,0.00,VWS V14.01,2013-07-03 03:00:00,
2013-07-02 22:01:00,68.5,28.2,25.13,SE,130,7.6,7.6,22,0.00,,---,0.00,VWS V14.01,2013-07-03 03:01:00,
2013-07-02 22:02:00,68.5,28.2,25.13,SE,130,7.6,7.6,22,0.00,,---,0.00,VWS V14.01,2013-07-03 03:02:00,
2013-07-02 22:04:00,68.5,28.2,25.13,SE,125,5.8,5.8,22,0.00,,---,0.00,VWS V14.01,2013-07-03 03:04:00,
2013-07-02 22:07:00,68.5,28.2,25.13,SE,125,5.4,5.8,22,0.00,,---,0.00,VWS V14.01,2013-07-03 03:07:00,
2013-07-02 22:10:00,68.5,28.2,25.13,SE,141,5.8,5.8,22,0.00,,---,0.00,VWS V14.01,2013-07-03 03:10:00,
2013-07-02 22:11:00,68.5,28.2,25.13,SE,141,5.8,5.8,22,0.00,,---,0.00,VWS V14.01,2013-07-03 03:11:00,
2013-07-02 22:13:00,68.5,28.2,25.13,SE,145,5.8,5.8,22,0.00,,---,0.00,VWS V14.01,2013-07-03 03:13:00,
2013-07-02 22:15:00,68.5,28.2,25.13,SE,145,5.8,5.8,22,0.00,,---,0.00,VWS V14.01,2013-07-03 03:15:00,
2013-07-02 22:17:00,68.5,28.2,25.13,SE,145,5.8,5.8,22,0.00,,---,0.00,VWS V14.01,2013-07-03 03:17:00,
2013-07-02 22:18:00,68.5,28.2,25.13,SE,145,5.8,5.8,22,0.00,,---,0.00,VWS V14.01,2013-07-03 03:18:00,
2013-07-02 22:21:00,68.4,28.1,25.13,SSE,149,3.6,3.6,22,0.00,,---,0.00,VWS V14.01,2013-07-03 03:21:00,
2013-07-02 22:22:00,68.4,28.1,25.13,SSE,149,3.6,3.6,22,0.00,,---,0.00,VWS V14.01,2013-07-03 03:22:00,
2013-07-02 22:23:00,68.4,28.1,25.13,ESE,118,5.4,5.4,22,0.00,,---,0.00,VWS V14.01,2013-07-03 03:23:00,
2013-07-02 22:24:00,68.4,28.1,25.13,ESE,118,5.4,5.4,22,0.00,,---,0.00,VWS V14.01,2013-07-03 03:24:00,
2013-07-02 22:26:00,68.4,28.1,25.13,ESE,118,5.4,5.4,22,0.00,,---,0.00,VWS V14.01,2013-07-03 03:26:00,
2013-07-02 22:28:00,68.4,28.1,25.13,ESE,118,5.4,5.4,22,0.00,,---,0.00,VWS V14.01,2013-07-03 03:28:00,
2013-07-02 22:30:00,68.4,28.1,25.13,ESE,118,5.4,5.4,22,0.00,,---,0.00,VWS V14.01,2013-07-03 03:30:00,
2013-07-02 22:31:00,68.2,27.9,25.13,ESE,118,5.4,5.4,22,0.00,,---,0.00,VWS V14.01,2013-07-03 03:31:00,
2013-07-02 22:33:00,68.2,27.9,25.13,ESE,118,5.4,5.4,22,0.00,,---,0.00,VWS V14.01,2013-07-03 03:33:00,
2013-07-02 22:35:00,68.2,27.9,25.13,East,95,4.5,4.5,22,0.00,,---,0.00,VWS V14.01,2013-07-03 03:35:00,
2013-07-02 22:36:00,68.2,27.9,25.13,East,95,4.5,4.5,22,0.00,,---,0.00,VWS V14.01,2013-07-03 03:36:00,
2013-07-02 22:39:00,68.2,27.9,25.13,SE,142,4.9,4.9,22,0.00,,---,0.00,VWS V14.01,2013-07-03 03:39:00,
2013-07-02 22:40:00,68.2,27.9,25.13,SE,129,4.9,4.9,22,0.00,,---,0.00,VWS V14.01,2013-07-03 03:40:00,
2013-07-02 22:41:00,68.2,27.9,25.13,SE,129,4.9,4.9,22,0.00,,---,0.00,VWS V14.01,2013-07-03 03:41:00,
2013-07-02 22:43:00,68.2,27.9,25.13,SE,141,4.0,4.0,22,0.00,,---,0.00,VWS V14.01,2013-07-03 03:43:00,
2013-07-02 22:45:00,68.0,27.8,25.13,ESE,114,4.0,4.0,22,0.00,,---,0.00,VWS V14.01,2013-07-03 03:45:00,
2013-07-02 22:46:00,68.0,27.8,25.13,East,100,5.4,5.4,22,0.00,,---,0.00,VWS V14.01,2013-07-03 03:46:00,
2013-07-02 22:49:00,68.0,27.8,25.13,ESE,122,5.4,5.4,22,0.00,,---,0.00,VWS V14.01,2013-07-03 03:49:00,
2013-07-02 22:50:00,68.0,27.8,25.13,ESE,122,5.4,5.4,22,0.00,,---,0.00,VWS V14.01,2013-07-03 03:50:00,
2013-07-02 22:51:00,68.0,27.8,25.13,SE,142,5.8,5.8,22,0.00,,---,0.00,VWS V14.01,2013-07-03 03:51:00,
2013-07-02 22:54:00,68.0,27.8,25.13,SE,142,5.8,5.8,22,0.00,,---,0.00,VWS V14.01,2013-07-03 03:54:00,
2013-07-02 22:55:00,68.0,27.8,25.13,SE,139,5.4,5.8,22,0.00,,---,0.00,VWS V14.01,2013-07-03 03:55:00,
2013-07-02 22:56:00,68.0,27.8,25.13,SE,135,6.3,6.3,22,0.00,,---,0.00,VWS V14.01,2013-07-03 03:56:00,
2013-07-02 22:59:00,67.6,27.5,25.13,SE,135,6.3,6.3,22,0.00,,---,0.00,VWS V14.01,2013-07-03 03:59:00,
2013-07-02 23:00:00,67.6,27.5,25.13,SE,131,3.6,6.3,22,0.00,,---,0.00,VWS V14.01,2013-07-03 04:00:00,
2013-07-02 23:01:00,67.5,27.3,25.13,SE,131,3.6,3.6,22,0.00,,---,0.00,VWS V14.01,2013-07-03 04:01:00,
2013-07-02 23:02:00,67.5,27.3,25.13,ESE,115,2.2,2.2,22,0.00,,---,0.00,VWS V14.01,2013-07-03 04:02:00,
2013-07-02 23:03:00,67.5,27.3,25.13,ESE,120,2.7,2.7,22,0.00,,---,0.00,VWS V14.01,2013-07-03 04:03:00,
2013-07-02 23:04:00,67.5,27.3,25.13,SSE,150,3.1,3.1,22,0.00,,---,0.00,VWS V14.01,2013-07-03 04:04:00,
2013-07-02 23:06:00,67.3,27.2,25.13,SSE,150,3.1,3.1,22,0.00,,---,0.00,VWS V14.01,2013-07-03 04:06:00,
2013-07-02 23:07:00,67.3,27.2,25.13,SSE,150,3.1,3.1,22,0.00,,---,0.00,VWS V14.01,2013-07-03 04:07:00,
2013-07-02 23:08:00,67.1,27.0,25.13,SSE,150,3.1,3.1,22,0.00,,---,0.00,VWS V14.01,2013-07-03 04:08:00,
2013-07-02 23:09:00,67.1,27.0,25.13,SSE,150,3.1,3.1,22,0.00,,---,0.00,VWS V14.01,2013-07-03 04:09:00,
2013-07-02 23:11:00,67.1,27.0,25.13,ESE,114,4.0,4.0,22,0.00,,---,0.00,VWS V14.01,2013-07-03 04:11:00,
2013-07-02 23:12:00,67.1,27.0,25.13,ESE,114,4.0,4.0,22,0.00,,---,0.00,VWS V14.01,2013-07-03 04:12:00,
2013-07-02 23:13:00,67.1,27.0,25.13,ESE,123,5.8,5.8,22,0.00,,---,0.00,VWS V14.01,2013-07-03 04:13:00,
2013-07-02 23:14:00,66.9,26.9,25.13,ESE,123,5.8,5.8,22,0.00,,---,0.00,VWS V14.01,2013-07-03 04:14:00,
2013-07-02 23:17:00,66.9,26.9,25.13,ESE,120,4.0,4.0,22,0.00,,---,0.00,VWS V14.01,2013-07-03 04:17:00,
2013-07-02 23:18:00,66.9,26.9,25.13,ESE,120,4.0,4.0,22,0.00,,---,0.00,VWS V14.01,2013-07-03 04:18:00,
2013-07-02 23:19:00,66.9,26.9,25.13,ESE,120,4.0,4.0,22,0.00,,---,0.00,VWS V14.01,2013-07-03 04:19:00,
2013-07-02 23:22:00,66.9,26.9,25.13,ESE,104,3.6,3.6,22,0.00,,---,0.00,VWS V14.01,2013-07-03 04:22:00,
2013-07-02 23:23:00,66.7,26.7,25.13,ESE,104,3.6,3.6,22,0.00,,---,0.00,VWS V14.01,2013-07-03 04:23:00,
2013-07-02 23:24:00,66.7,26.7,25.13,ESE,104,3.6,3.6,22,0.00,,---,0.00,VWS V14.01,2013-07-03 04:24:00,
2013-07-02 23:27:00,66.6,26.6,25.13,ESE,108,2.7,2.7,22,0.00,,---,0.00,VWS V14.01,2013-07-03 04:27:00,
2013-07-02 23:28:00,66.4,26.4,25.13,ESE,108,2.7,2.7,22,0.00,,---,0.00,VWS V14.01,2013-07-03 04:28:00,
2013-07-02 23:29:00,66.4,26.4,25.13,ESE,108,2.7,2.7,22,0.00,,---,0.00,VWS V14.01,2013-07-03 04:29:00,
2013-07-02 23:31:00,66.2,26.3,25.13,ESE,108,2.7,2.7,22,0.00,,---,0.00,VWS V14.01,2013-07-03 04:31:00,
2013-07-02 23:32:00,66.2,26.3,25.13,ESE,108,2.7,2.7,22,0.00,,---,0.00,VWS V14.01,2013-07-03 04:32:00,
2013-07-02 23:33:00,66.2,26.3,25.13,ESE,108,2.7,2.7,22,0.00,,---,0.00,VWS V14.01,2013-07-03 04:33:00,
2013-07-02 23:34:00,66.2,26.3,25.13,ESE,108,2.7,2.7,22,0.00,,---,0.00,VWS V14.01,2013-07-03 04:34:00,
2013-07-02 23:36:00,66.0,27.2,25.13,ESE,118,2.7,4.0,23,0.00,,---,0.00,VWS V14.01,2013-07-03 04:36:00,
2013-07-02 23:37:00,66.0,27.2,25.13,ESE,118,2.7,2.7,23,0.00,,---,0.00,VWS V14.01,2013-07-03 04:37:00,
2013-07-02 23:38:00,66.0,27.2,25.13,ESE,118,2.7,2.7,23,0.00,,---,0.00,VWS V14.01,2013-07-03 04:38:00,
2013-07-02 23:39:00,65.8,27.0,25.13,ESE,116,3.1,3.1,23,0.00,,---,0.00,VWS V14.01,2013-07-03 04:39:00,
2013-07-02 23:42:00,65.7,26.9,25.13,ESE,116,2.7,2.7,23,0.00,,---,0.00,VWS V14.01,2013-07-03 04:42:00,
2013-07-02 23:43:00,65.5,26.7,25.13,ESE,116,2.7,2.7,23,0.00,,---,0.00,VWS V14.01,2013-07-03 04:43:00,
2013-07-02 23:44:00,65.3,26.6,25.13,ESE,116,2.7,2.7,23,0.00,,---,0.00,VWS V14.01,2013-07-03 04:44:00,
2013-07-02 23:46:00,65.1,26.4,25.16,ESE,115,2.7,2.7,23,0.00,,---,0.00,VWS V14.01,2013-07-03 04:46:00,
2013-07-02 23:47:00,65.1,26.4,25.16,ESE,115,2.7,2.7,23,0.00,,---,0.00,VWS V14.01,2013-07-03 04:47:00,
2013-07-02 23:49:00,64.9,26.3,25.16,ESE,114,3.1,3.1,23,0.00,,---,0.00,VWS V14.01,2013-07-03 04:49:00,
2013-07-02 23:52:00,65.1,26.4,25.16,ESE,114,3.1,3.1,23,0.00,,---,0.00,VWS V14.01,2013-07-03 04:52:00,
2013-07-02 23:53:00,65.1,26.4,25.16,ESE,120,4.0,4.0,23,0.00,,---,0.00,VWS V14.01,2013-07-03 04:53:00,
2013-07-02 23:54:00,65.1,26.4,25.16,ESE,120,4.0,4.0,23,0.00,,---,0.00,VWS V14.01,2013-07-03 04:54:00,
2013-07-02 23:58:00,65.3,26.6,25.16,ESE,120,4.0,4.0,23,0.00,,---,0.00,VWS V14.01,2013-07-03 04:58:00,
2013-07-02 23:59:00,65.3,26.6,25.16,ESE,120,4.0,4.0,23,0.00,,---,0.00,VWS V14.01,2013-07-03 04:59:00,